TimeEDT,TemperatureF,Dew PointF,Humidity,Sea Level PressureIn,VisibilityMPH,Wind Direction,Wind SpeedMPH,Gust SpeedMPH,PrecipitationIn,Events,Conditions,WindDirDegrees,DateUTC
12:51 AM,27.0,19.9,75,30.35,10.0,WNW,4.6,-,N/A,,Clear,300,2013-03-10 05:51:00
1:51 AM,28.9,21.9,75,30.36,10.0,Calm,Calm,-,N/A,,Clear,0,2013-03-10 06:51:00
3:51 AM,26.1,21.9,84,30.34,10.0,NNE,3.5,-,N/A,,Clear,20,2013-03-10 07:51:00
4:51 AM,27.0,23.0,85,30.35,10.0,Calm,Calm,-,N/A,,Clear,0,2013-03-10 08:51:00
5:51 AM,26.1,23.0,88,30.36,10.0,Calm,Calm,-,N/A,,Clear,0,2013-03-10 09:51:00
6:51 AM,26.1,23.0,88,30.38,10.0,Calm,Calm,-,N/A,,Partly Cloudy,0,2013-03-10 10:51:00
7:51 AM,27.0,23.0,85,30.39,10.0,Calm,Calm,-,N/A,,Scattered Clouds,0,2013-03-10 11:51:00
8:51 AM,33.1,27.0,78,30.40,10.0,NNE,5.8,-,N/A,,Scattered Clouds,30,2013-03-10 12:51:00
9:51 AM,37.0,27.0,67,30.40,10.0,NE,4.6,-,N/A,,Scattered Clouds,50,2013-03-10 13:51:00
10:51 AM,39.9,28.9,65,30.39,10.0,Calm,Calm,-,N/A,,Scattered Clouds,0,2013-03-10 14:51:00
11:51 AM,42.1,28.9,60,30.37,10.0,Calm,Calm,-,N/A,,Partly Cloudy,0,2013-03-10 15:51:00
12:51 PM,44.1,28.9,55,30.37,10.0,East,4.6,-,N/A,,Partly Cloudy,100,2013-03-10 16:51:00
1:51 PM,48.0,28.0,46,30.34,10.0,SSE,5.8,-,N/A,,Partly Cloudy,160,2013-03-10 17:51:00
2:51 PM,50.0,28.9,44,30.32,10.0,SE,8.1,-,N/A,,Partly Cloudy,140,2013-03-10 18:51:00
3:51 PM,50.0,28.0,43,30.31,10.0,SSW,5.8,-,N/A,,Partly Cloudy,200,2013-03-10 19:51:00
4:51 PM,51.1,28.0,41,30.29,10.0,SSE,8.1,-,N/A,,Scattered Clouds,160,2013-03-10 20:51:00
5:51 PM,50.0,28.0,43,30.28,10.0,South,6.9,-,N/A,,Scattered Clouds,170,2013-03-10 21:51:00
6:51 PM,46.9,32.0,56,30.29,10.0,South,12.7,-,N/A,,Mostly Cloudy,180,2013-03-10 22:51:00
7:51 PM,44.1,30.9,60,30.31,10.0,SSW,12.7,-,N/A,,Overcast,200,2013-03-10 23:51:00
8:51 PM,42.1,30.9,65,30.30,10.0,South,10.4,-,N/A,,Overcast,180,2013-03-11 00:51:00
9:51 PM,39.0,30.9,73,30.32,10.0,South,12.7,-,N/A,,Mostly Cloudy,170,2013-03-11 01:51:00
10:51 PM,37.9,32.0,79,30.31,10.0,South,11.5,-,N/A,,Overcast,180,2013-03-11 02:51:00
11:51 PM,37.0,32.0,82,30.31,10.0,South,10.4,-,N/A,,Mostly Cloudy,170,2013-03-11 03:51:00
12:51 AM,37.0,32.0,82,30.31,10.0,South,9.2,-,N/A,,Mostly Cloudy,180,2013-03-11 04:51:00